www.pogodaiklimat.ru

Погода и климат >> Архив погоды >> Россия >> Приморский край >> Красный Яр


ПОГОДА в Красном Яре

  • Прогноз погоды в Красном Яре
  • Монитор погоды в Красном Яре

АРХИВ ПОГОДЫ в Красном Яре

Время (UTC), дата Ветер
(напр.,м/с)
 
Видим.   Явления Облачность Т
(С)
Тd
(С)
f
(%)
Тe
(С)
Тes
(С)
Комфортность P
(гПа)
Po
(гПа)
Тmin
(С)
Tmax
(С)
R
(мм)
R24
(мм)
S
(см)
09 16.07 штиль 0 50 км 8/4 600 м
[Cu hum Ci fib]
+27.4 +17.5 55 +32 +33 очень
душно
1009.8 995.2 +27.6
12 16.07 штиль 0 20 км 3/0
[Ci fib]
+17.4 +15.9 91 +17 +17 1011.4 996.2
15 16.07 В 1 20 км 9/9 600 м
[Cb cap]
+17.3 +15.7 90 +18 +18 1011.8 996.6
18 16.07 штиль 0 20 км {ливн. осадки} 10/10 600 м
[Cb cap]
+17.3 +15.6 90 +17 +17 1011.6 996.5
21 16.07 штиль 0 50 км 10/10 600 м
[Cb cap]
+17.9 +17.6 98 +18 +18 1011.0 995.9 +15.9 1
00 17.07 штиль 0 50 км 10/10 600 м
[Cb cap]
+23.0 +19.1 79 +29 +29 очень
душно
1009.8 995.0
03 17.07 З 1 50 км 10/8 600 м
[Cb cap Cs]
+26.7 +18.9 62 +32 +35 очень
душно
1008.0 993.4
06 17.07 ЮЗ 1 50 км 10/10 600 м
[Cb cap]
+24.4 +19.2 73 +29 +29 душно 1007.1 992.5
09 17.07 З 2 50 км 10/10 600 м
[Sc]
+23.9 +19.0 74 +29 +29 душно 1006.2 991.5 +26.8
12 17.07 штиль 0 10 км слаб. ливневой дождь 10/10 600 м
[Cb cap]
+19.9 +19.6 98 +23 +23 комфорт 1007.2 992.3
15 17.07 штиль 0 10 км слаб. ливневой дождь 10/10 600 м
[Cb cap]
+19.6 +19.5 99 +22 +22 комфорт 1006.5 991.6
18 17.07 ЮЗ 1 10 км {гроза} 10/10 600 м
[Cb cap]
+19.7 +19.6 99 +24 +24 комфорт 1006.2 991.3
21 17.07 З 1 50 км 10/10 600 м
[Cb cap]
+19.5 +19.4 99 +23 +23 комфорт 1006.3 991.4 +19.5 20
00 18.07 ЮЗ 1 50 км 10/10 600 м
[Cb cap]
+20.4 +20.4 100 +26 +26 душно 1006.1 991.2 +19.4
03 18.07 ЮЗ 2 50 км 10/10 600 м
[Cb cap]
+22.6 +20.2 86 +29 +29 очень
душно
1005.7 990.9
06 18.07 ЮЗ 1 50 км 8/8 600 м
[Cb cap]
+26.3 +20.7 71 +33 +35 очень
душно
1003.8 989.3
09 18.07 штиль 0 50 км 9/4 600 м
[Cb cap Ac trans]
+24.6 +22.2 87 +32 +33 очень
душно
1003.6 989.0 +27.2
12 18.07 ЮЗ 1 20 км в посл. час ливневой дождь 10/10 600 м
[Cb cap]
+21.1 +21.0 99 +26 +26 душно 1004.8 990.0
15 18.07 штиль 0 20 км в посл. час гроза 10/10 600 м
[Cb cap]
+20.0 +19.9 99 +23 +23 комфорт 1004.6 989.7
18 18.07 штиль 0 10 км слаб. ливневой дождь {гроза} 10/10 600 м
[Cb cap]
+19.9 +19.8 99 +23 +23 комфорт 1004.8 989.9
21 18.07 ЮЗ 1 10 км гроза, ливневой дождь 10/10 600 м
[Cb cap]
+19.6 +19.5 99 +23 +23 комфорт 1005.3 990.4 +19.6 14
00 19.07 штиль 0 10 км слаб. ливневой дождь {гроза} 10/10 600 м
[Cb cap]
+19.8 +19.7 99 +23 +23 комфорт 1006.1 991.2 +19.2
03 19.07 З 1 50 км {ливн. осадки} 10/10 600 м
[Cb cap]
+22.7 +21.8 95 +30 +30 очень
душно
1006.0 991.3
06 19.07 штиль 0
{10}
10 км слаб. ливневой дождь {гроза} 8/8 600 м
[Cb cap]
+19.6 +19.5 99 +22 +25 комфорт 1006.4 991.5
09 19.07 штиль 0 50 км {ливн. осадки} 8/8 600 м
[Sc]
+22.0 +19.8 87 +28 +28 душно 1007.2 992.4 +23.3 21
12 19.07 штиль 0 20 км {ливн. осадки} 3/1 600 м
[Sc diur, vesp Ci]
+17.5 +16.9 96 +17 +17 1008.7 993.7
15 19.07 СВ 1 20 км ясно +16.2 +15.0 93 +17 +17 1009.5 994.4
18 19.07 штиль 0 200 м туман ?/? +16.5 +16.3 99 +16 +16 1009.5 994.3
21 19.07 СВ 2 200 м туман н/о +17.3 +17.1 99 +18 +18 1011.3 996.1 +16.2
00 20.07 СВ 1 50 км в посл. час туман 1/0
[Ci fib]
+20.8 +19.2 91 +26 +39 душно 1011.8 996.8
03 20.07 штиль 0 50 км 4/4 600 м
[Cu med, cong]
+28.2 +20.6 63 +35 +49 очень
душно
1010.3 995.8
06 20.07 З 1 50 км 5/5 600 м
[Cu med, cong]
+31.2 +19.1 49 +37 +43 очень
душно
1009.3 994.9
09 20.07 штиль 0 50 км 8/0
[Cs]
+28.6 +22.7 70 +38 +39 очень
душно
1008.4 993.9 +32.0
12 20.07 штиль 0 20 км 3/0
[Ci]
+21.3 +20.8 97 +27 +27 душно 1009.5 994.5
15 20.07 штиль 0 20 км ясно +18.1 +17.9 99 +18 +18 1010.6 995.5
18 20.07 штиль 0 20 км 10/10 600 м
[Sc]
+19.0 +17.9 93 +20 +20 1010.9 995.3
21 20.07 СЗ 1 50 км 8/0
[Cs]
+19.2 +18.7 97 +22 +24 комфорт 1011.1 996.0 +19.2
00 21.07 СВ 1 50 км 8/5 600 м
[Sc Ci fib]
+25.2 +21.3 79 +32 +38 очень
душно
1010.3 995.6
03 21.07 ЮЗ 2 50 км 9/9 600 м
[Cb cap]
+31.0 +22.1 59 +40 +42 очень
душно
1009.5 995.2
06 21.07 ЮЗ 1 50 км 6/6 600 м
[Cu hum]
+32.7 +22.1 54 +42 +47 опасность
перегрева
1007.6 993.4
09 21.07 В 1 50 км {ливн. осадки} 8/8 600 м
[Cb cap]
+26.1 +25.1 94 +37 +38 очень
душно
1007.1 992.6 +33.7 0.5
12 21.07 штиль 0 20 км {ливн. осадки} 3/0
[Ac cuf]
+22.0 +21.9 99 +29 +29 очень
душно
1008.6 993.8
15 21.07 штиль 0 20 км ясно +19.5 +19.3 99 +22 +22 комфорт 1007.8 992.8
18 21.07 штиль 0 20 км ясно +18.1 +17.6 97 +18 +18 1006.6 991.6
21 21.07 С 2 50 км 3/0
[Ci fib]
+20.7 +19.0 90 +26 +27 душно 1004.8 989.9 +16.9
00 22.07 СВ 3 50 км 10/8 600 м
[Sc Ci]
+25.1 +18.8 68 +30 +31 душно 1003.1 988.5
03 22.07 В 1 50 км 10/10 600 м
[Cb cap]
+24.8 +20.5 77 +31 +31 очень
душно
1001.9 987.3
06 22.07 СВ 2 50 км {ливн. осадки} 10/10 600 м
[Cb cap]
+24.8 +19.6 73 +30 +30 душно 1000.1 985.6
09 22.07 С 1 50 км в посл. час ливневой дождь 10/10 600 м
[Cb cap]
+21.6 +21.5 99 +28 +28 очень
душно
999.8 985.1 +26.8 0.8
12 22.07 штиль 0 20 км 10/10 600 м
[Cb cap]
+20.5 +20.2 98 +25 +25 комфорт 1000.9 986.2
15 22.07 В 1 20 км 8/8 600 м
[Cb cap]
+19.7 +18.7 94 +24 +24 комфорт 1001.2 986.4
18 22.07 С 1 20 км 6/6 600 м
[Cb cap]
+18.7 +18.0 96 +21 +21 комфорт 1001.1 986.2
21 22.07 В 1 50 км 4/4 600 м
[Sc]
+19.9 +18.6 92 +24 +25 комфорт 1001.1 986.3 +17.2
00 23.07 штиль 0 50 км 8/8 600 м
[Cb cap]
+25.8 +20.2 71 +32 +35 очень
душно
1000.4 985.9
03 23.07 З 3 50 км 9/9 600 м
[Cb cap]
+26.0 +21.6 77 +33 +35 очень
душно
999.8 985.3

 

Местоположение метеостанции Красный Яр (Приморский край, Россия): широта 46.53 долгота 135.30 высота над уровнем моря 130 м.

В архиве по умолчанию представлена погода в Красном Яре за последнюю неделю. Архивные данные за месяц целиком и за предыдущие месяцы, начиная с января 2011 года, Вы можете получить, выбрав интересующий диапазон дат из раскрывающегося списка и нажав кнопку "Ввод!".


*Определитесь, кто Вы:
робот инопланетянин человек

Внимание! Время в таблицах - всемирное. Для получения местного времени необходимо прибавить поправку, которая равна 10 ч.

Смотрите также архив погоды в соседних городах и на ближайших метеорологических станциях:

Погода в Глубинном (Приморский край, Россия) (51 км)
Погода в Бикине (Хабаровский край, Россия) (89 км)
Погода в Лермонтовке (Хабаровский край, Россия) (103 км)
Погода в Вяземском (Хабаровский край, Россия) (119 км)
Погода в Мельничном (Приморский край, Россия) (121 км)
Погода в Бичевой (Хабаровский край, Россия) (140 км)
Погода в Гвасюгах (Хабаровский край, Россия) (141 км)
Погода в Дальнереченске (Приморский край, Россия) (143 км)
Погода в Малиново (Приморский край, Россия) (150 км)
Погода в Хоре (Хабаровский край, Россия) (151 км)

Пояснения к столбцам:

Ветер - указаны скорость ветра в м/с - средняя за 10 мин, порывы в срок и между сроками (в фигурных скобках) и направление, откуда дует ветер: С - северный, СВ - северо-восточный, В - восточный, ЮВ - юго-восточный, Ю - южный, ЮЗ - юго-западный, З - западный, СЗ - северо-западный.
Видимость - горизонтальная дальность видимости в метрах или километрах. При видимости от 1 до 10 км при отсутствии осадков обычно наблюдается дымка, при ухудшении видимости до 1 км и менее - туман. В сухую погоду видимость может ухудшаться дымом, пылью или мглою.
Явления - указаны атмосферные явления, наблюдавшиеся в срок или в последний час перед сроком; фигурными скобками обозначены явления, наблюдавшиеся между сроками (за 1-3 часа до срока); квадратными скобками обозначены град или гололедные отложения с указанием их диаметра в мм.
Облачность - указаны через наклонную черту общая и нижняя облачность в баллах и высота нижней границы облаков в метрах; квадратными скобками обозначены формы облаков: Ci - перистые, Cs - перисто-слоистые, Cc - перисто-кучевые, Ac - высококучевые, As - высокослоистые, Sc - слоисто-кучевые, Ns - слоисто-дождевые, Cu - кучевые, Cb - кучево-дождевые. Подробнее классификацию облаков см. в Атласе облаков (PDF).
T - Температура воздуха - температура, измеренная на высоте 2 м над землей.
Td - Температура точки росы - температура, при понижении до которой содержащийся в воздухе водяной пар достигнет насыщения.
f - Относительная влажность воздуха - влажноcть воздуха, измеренная на высоте 2 м над землей.
Te - Эффективная температура - температура, которую ощущает одетый по сезону человек в тени. Характеристика душности погоды. При расчете учитывается влияние влажности воздуха и скорости ветра на теплоощущения человека.
Tes - Эффективная температура на солнце - температура, которую ощущает человек, с поправкой на солнечный нагрев. Характеристика знойности погоды. Зависит от высоты солнца над горизонтом, облачности и скорости ветра. Ночью, в пасмурную погоду, а также при ветре 12 м/с и более поправка равна нулю.
P - Атмосферное давление - приведенное к уровню моря атмосферное давление.
Po - Атмосферное давление - измеренное на уровне метеостанции атмосферное давление.
Tmin - Минимальная температура - минимум температуры воздуха на высоте 2 м над землей.
Tmax - Максимальная температура - максимум температуры воздуха на высоте 2 м над землей.
R - Количество осадков - Количество выпавших осадков за период времени, мм. При наведении курсора мыши на число - период времени, за который выпало указанное количество осадков.
R24 - Количество осадков - Количество выпавших осадков за 24 часа, мм.
S - Снежный покров - Высота снежного покрова, см. При наведении курсора мыши на число - состояние снежного покрова и степень покрытия местности в баллах.